Location: Foulognes
(49.1413°N, 0.8183°W)
Time: 09:00:19
(UTC+00:00)

NOSS 3-2 (A) - Pass Details

Date: 21 October 2019
Orbit: 815 x 1393 km, 63.4° (Epoch: 19 November)

Event Time Altitude Azimuth Distance (km) Brightness Sun altitude
Rises 19:21:46 0° 224° (SW) 3,412 6.8 -23.4°
Reaches altitude 10° 19:24:07 10° 226° (SW) 2,525 6.1 -23.8°
Maximum altitude 19:29:58 80° 314° (NW) 971 3.5 -24.7°
Enters shadow 19:33:49 27° 38° (NE) 1,857 4.7 -25.4°
